Location: Campestrin
(46.4667°N, 11.7167°E)
Time: 04:17:01
(UTC+00:00)

BREEZE-M DEB (TANK) - Pass Details

Date: 18 April 2021
Orbit: 317 x 14226 km, 49.6° (Epoch: 16 May)

Event Time Altitude Azimuth Distance (km) Brightness Sun altitude
Rises 20:03:29 0° 290° (WNW) 2,252 7.0 -18.6°
Reaches altitude 10° 20:05:24 10° 292° (WNW) 1,240 5.5 -18.9°
Enters shadow 20:07:22 62° 323° (NW) 372 2.0 -19.1°
